SCP
1 1 1 1 1 1 0 0 1 1 1 1 1 1 1 1 1 1 1 1 1 1 1 1 1 0 0 0 0 0 0 0 0 0 0 0 0 0 0 0 0 0 0
1 1 1 1 1 1 1 1 1 1 1 1 1 1 1 1 1 1 1 1 1 1 1 1 1 0 0 0 0 0 0 0 0 0 0 0 0 0 0 0 0 0 0
1 1 1 1 1 1 1 1 1 1 1 1 1 1 1 1 1 1 1 1 1 1 1 1 1 1 1 1 1 0 0 0 0 0 0 0 0 0 0 0 0 0 0
2 2 2 2 2 1 1 1 1 1 1 1 1 1 1 1 1 1 1 1 1 1 1 1 1 1 1 1 1 1 0 0 0 0 0 0 0 0 0 0 0 0 0
2 2 3 2 2 2 1 1 1 1 1 1 1 1 1 1 1 1 1 1 1 1 1 1 1 1 1 1 1 1 1 0 0 0 0 0 0 0 0 0 0 0 0
2 3 3 3 3 2 1 1 1 1 1 1 1 1 1 1 1 1 1 1 1 2 1 1 1 1 1 1 1 1 1 1 0 0 0 0 0 0 0 0 0 0 0
3 3 3 3 3 2 1 1 1 1 1 1 1 1 1 1 2 1 1 1 1 2 2 1 1 1 1 1 1 1 1 1 0 0 0 0 0 1 1 0 0 0 0
3 3 3 3 2 2 1 1 1 1 1 1 1 1 1 1 1 1 1 1 1 1 2 2 2 2 2 1 1 1 1 1 0 0 0 0 0 1 1 1 0 0 0
3 3 3 3 2 1 1 1 1 1 1 1 1 1 1 1 1 1 0 1 1 1 2 2 2 2 2 2 1 1 1 1 0 0 0 0 1 1 1 1 0 0 0
3 3 3 3 2 1 1 1 1 1 1 1 1 1 1 1 1 0 0 0 1 1 1 2 2 2 2 2 1 1 1 0 0 0 0 0 1 1 1 1 0 0 0
3 3 3 3 2 2 1 1 1 0 1 1 1 1 1 1 0 0 0 0 0 1 1 1 2 2 2 2 1 1 1 0 0 0 0 0 1 1 1 1 1 0 0
3 3 3 2 2 2 2 1 1 1 1 1 1 1 1 1 1 0 0 0 0 0 0 1 1 2 2 2 1 1 1 0 0 0 0 0 1 1 1 1 1 1 0
2 2 3 3 3 2 2 2 1 1 1 1 1 1 1 1 1 0 0 0 0 0 0 0 1 1 2 1 1 1 1 0 0 0 0 0 1 1 1 1 1 1 1
2 2 2 3 3 3 2 2 2 1 1 1 1 1 1 1 0 0 0 0 0 0 0 0 1 1 1 1 1 1 1 0 0 0 0 0 1 1 1 1 1 1 1
2 2 2 2 3 3 2 2 2 1 1 1 1 1 0 0 0 0 0 0 0 0 0 0 1 1 2 1 1 1 1 0 0 0 0 0 1 1 1 1 1 1 1
1 1 2 2 2 2 2 2 1 1 1 1 1 1 1 0 0 0 0 0 0 0 0 0 1 1 2 1 1 1 1 1 0 0 0 0 0 1 1 1 1 0 0
1 1 1 2 2 2 2 1 1 1 1 1 1 1 1 0 0 0 0 0 0 0 0 0 0 1 1 1 1 1 1 1 0 0 0 0 0 0 1 1 1 0 0
1 1 1 1 1 1 1 1 1 1 1 1 1 1 1 1 0 0 0 0 0 0 0 0 0 1 1 2 1 1 1 1 0 0 0 0 0 0 0 1 1 0 0
1 1 1 1 1 1 1 1 1 1 1 1 1 1 1 1 1 0 0 0 0 0 0 0 0 1 1 1 1 1 1 1 0 0 0 0 0 0 0 0 0 0 0
1 1 1 1 1 1 1 1 1 0 1 1 1 1 1 1 1 1 0 0 0 0 0 0 0 1 1 1 1 1 1 0 0 0 0 0 0 0 0 0 0 0 0
1 1 1 1 1 1 1 1 1 0 1 1 1 1 1 1 1 1 0 0 0 0 0 0 0 0 1 1 1 1 1 0 0 0 0 0 0 0 0 0 0 0 0
1 1 1 1 1 1 1 1 1 0 1 1 1 1 1 1 1 0 0 0 0 0 0 0 0 0 0 0 1 1 0 0 0 0 0 0 0 0 0 0 0 0 0
1 1 1 1 1 1 1 1 1 1 1 1 1 1 1 1 1 0 0 0 0 0 0 0 0 0 0 0 0 0 0 0 0 0 0 0 0 0 0 0 0 0 0
1 1 1 1 1 1 1 1 1 1 1 1 1 1 1 1 0 0 0 0 0 0 0 0 0 0 0 0 0 0 0 0 0 0 0 0 0 0 0 0 0 0 0
1 1 1 0 0 1 1 1 1 1 1 1 1 1 1 0 0 0 0 0 0 0 0 0 0 0 0 0 0 0 0 0 0 0 0 0 0 0 0 0 0 0 0
1 1 1 0 0 0 1 1 1 1 1 1 1 0 0 0 0 0 0 0 0 0 0 0 0 0 0 0 0 0 0 0 0 0 0 0 0 0 0 0 0 0 0
Wind_Speed
5 6 5 5 6 8 9 9 9 9 9 9 10 10 10 10 9 9 9 10 10 10 10 11 11 11 12 12 12 12 12 12 11 12 12 12 13 14 14 12 11 9 14
7 7 6 5 7 9 10 9 9 9 9 9 9 10 10 10 10 9 9 9 9 9 9 10 11 11 12 12 12 11 11 10 9 9 10 10 11 12 13 13 12 9 13
8 8 6 6 8 9 10 9 9 9 9 9 9 9 9 9 9 9 9 9 9 8 9 10 11 11 11 11 11 10 10 9 8 7 6 5 7 11 12 12 12 13 13
8 7 6 7 8 9 9 9 9 9 9 9 9 9 9 9 9 9 8 8 8 9 9 10 10 11 11 11 10 9 8 7 6 6 4 5 5 10 11 12 12 12 12
6 7 6 8 9 9 9 9 9 9 9 9 9 9 8 8 8 8 8 8 9 9 10 10 10 10 10 10 9 8 7 6 6 6 5 6 5 9 11 11 12 11 11
6 6 7 8 9 9 9 9 9 9 8 8 8 8 8 7 8 7 7 8 9 9 10 10 10 9 9 8 8 7 7 7 5 4 5 6 5 9 11 11 11 11 11
5 5 7 8 8 8 8 8 8 8 8 8 7 8 7 7 7 8 7 8 8 9 9 9 9 9 9 8 7 7 7 7 4 4 5 5 5 9 10 10 10 11 10
5 6 7 7 8 8 7 7 7 7 8 7 7 7 7 7 8 8 8 7 8 8 8 8 8 8 8 8 8 7 8 7 5 5 5 4 6 7 8 9 9 9 9
5 5 5 5 5 6 7 7 7 7 7 8 7 7 7 7 8 8 7 7 7 7 8 7 7 7 7 7 7 6 6 6 4 3 5 4 6 7 8 8 8 8 8
5 5 4 4 4 4 4 6 6 6 7 7 7 7 6 6 7 7 6 6 6 7 7 6 6 6 6 6 6 6 5 4 3 4 3 4 6 7 7 7 7 7 7
4 3 3 3 3 3 4 5 5 5 6 6 5 5 4 2 3 4 5 6 6 6 6 5 5 5 4 4 4 4 3 2 3 3 3 5 6 6 6 6 6 6 6
3 3 3 3 3 3 3 3 2 3 3 3 2 2 1 2 2 3 5 5 5 5 5 5 4 3 2 1 2 2 2 3 2 3 3 5 5 5 5 6 6 6 6
3 3 3 3 3 3 2 2 2 2 2 2 2 2 1 1 1 2 2 2 2 3 2 2 2 1 2 1 1 2 2 2 2 2 3 5 5 5 5 5 5 5 5
3 3 3 3 3 3 2 2 2 2 2 2 2 2 1 1 1 1 1 1 1 1 1 1 1 1 2 2 2 2 2 2 2 2 3 5 5 5 4 4 4 5 5
3 3 3 3 3 3 2 2 2 2 2 2 2 1 2 1 1 1 1 1 1 1 1 1 1 1 1 1 2 2 2 2 2 2 2 4 5 4 4 3 4 4 4
4 4 3 3 3 3 3 2 2 2 2 2 2 1 2 1 1 1 1 1 1 1 1 1 1 1 1 1 2 2 2 2 2 2 2 2 4 4 4 4 4 4 4
4 4 4 3 3 3 3 2 2 2 2 2 2 2 1 1 1 1 1 1 1 1 1 1 1 1 1 1 1 1 1 1 1 2 2 1 1 2 3 3 4 3 3
3 4 4 3 3 3 3 2 2 1 2 2 2 2 2 1 1 1 1 1 1 1 1 1 1 1 1 1 1 1 1 1 1 1 2 2 1 1 1 3 4 3 3
3 4 4 3 3 3 3 2 2 2 2 2 2 2 2 2 1 1 1 1 1 1 0 1 1 1 1 1 1 1 0 0 0 1 1 1 1 1 1 1 2 3 3
3 3 3 3 3 3 2 2 2 2 2 2 2 2 2 2 1 1 2 1 1 1 0 1 1 1 1 1 1 0 0 0 1 1 1 1 1 1 1 1 1 2 3
3 3 3 3 3 3 3 2 2 2 2 2 1 2 2 2 2 1 1 1 1 1 1 1 1 2 1 1 1 0 1 1 1 1 1 1 1 0 1 1 1 1 1
3 3 3 3 3 2 2 2 2 2 2 2 2 2 2 2 2 1 1 1 1 1 1 1 1 1 0 0 1 1 0 1 1 1 1 1 1 0 0 0 1 1 1
2 3 2 2 3 3 2 2 2 2 1 1 2 2 2 2 2 1 1 1 1 1 1 1 1 2 2 1 1 2 2 2 1 1 2 2 1 1 1 0 0 0 0
2 2 2 2 2 2 2 3 3 2 2 2 2 2 2 2 2 2 1 1 1 1 1 1 1 0 2 2 1 0 1 1 1 1 1 1 1 1 1 1 1 1 0
2 2 2 2 2 2 2 2 2 2 2 2 2 3 2 2 2 1 1 1 1 1 1 1 1 1 1 2 2 1 1 1 1 2 2 2 1 1 1 1 1 1 1
3 2 2 2 2 2 1 1 2 2 2 3 3 2 2 1 1 1 1 1 1 1 1 1 1 2 1 2 1 1 1 1 2 2 2 3 2 2 2 2 2 2 1
Wind_Direction
110 118 117 111 111 106 98 90 88 87 87 91 89 86 82 78 78 77 74 74 76 76 79 82 81 79 75 71 68 68 67 67 67 68 69 71 72 72 68 66 66 64 68
116 120 118 112 115 110 102 95 89 87 86 87 88 86 82 79 77 77 77 75 75 76 80 81 80 81 79 74 70 68 66 63 62 64 68 69 70 72 70 66 66 70 70
116 120 125 111 114 109 104 99 93 92 89 87 85 84 83 80 77 76 76 75 74 77 83 85 82 81 80 77 75 72 66 55 44 45 58 73 71 74 74 70 70 71 70
116 123 127 112 111 108 105 102 98 96 91 89 86 82 82 81 79 75 75 74 74 79 82 84 85 83 78 75 74 71 65 47 31 33 61 68 67 73 75 73 71 69 68
112 120 122 114 113 110 106 103 101 98 93 91 89 85 80 79 78 74 73 75 75 79 82 82 84 83 80 74 69 63 54 33 23 47 58 64 59 71 74 73 71 69 68
104 112 120 115 115 113 110 106 102 100 97 95 93 90 84 78 76 75 73 78 79 77 78 79 82 81 79 74 67 57 41 24 23 51 60 64 60 69 71 71 72 70 70
106 106 118 110 113 110 107 103 100 100 97 94 95 93 88 81 77 74 77 78 81 79 79 78 78 76 74 70 62 50 34 21 44 55 63 62 60 70 73 72 72 70 70
110 111 120 104 106 108 104 101 100 97 94 89 86 91 89 87 81 75 73 75 80 82 82 80 78 75 70 64 56 45 31 25 39 56 65 65 66 75 76 73 72 72 69
108 113 122 126 116 106 103 100 98 95 91 87 81 84 82 81 80 75 69 71 77 85 86 83 81 76 72 64 52 36 28 22 34 46 65 64 70 77 78 74 70 69 70
99 105 121 129 127 124 117 102 98 97 96 93 86 80 77 79 81 75 68 67 75 81 87 86 83 79 75 67 52 29 16 18 46 53 54 60 70 76 76 75 71 69 66
102 106 121 125 123 126 127 122 116 107 100 101 96 89 88 81 83 78 72 69 71 76 79 89 91 87 76 68 55 32 15 42 56 58 54 61 73 75 74 73 73 72 69
136 129 127 131 125 123 128 128 135 128 120 115 105 100 90 75 73 81 80 75 70 75 77 75 93 97 74 74 57 38 34 44 59 64 52 64 74 74 76 74 72 70 70
151 142 132 136 131 126 125 134 136 132 134 126 117 112 92 85 82 86 93 85 79 79 80 76 63 66 61 50 57 52 42 46 53 66 55 64 68 76 78 74 71 67 67
151 157 143 138 134 128 128 132 132 129 137 130 129 123 108 97 89 92 102 105 101 86 87 77 64 67 68 55 62 56 51 55 57 66 63 65 62 70 78 77 76 68 64
156 161 156 151 150 142 134 133 125 133 140 140 135 130 110 112 121 123 120 104 99 86 81 74 72 77 77 69 62 60 60 58 66 65 67 68 60 56 65 67 77 71 65
170 168 158 156 155 152 146 143 137 138 135 129 125 118 116 111 111 109 107 102 105 108 99 99 89 97 93 87 70 60 66 62 68 76 80 72 58 51 49 48 51 63 61
173 164 159 157 152 153 154 153 146 141 131 120 125 132 117 109 123 111 106 102 111 111 104 94 78 102 114 105 97 78 70 65 70 71 76 89 78 49 42 38 28 39 44
161 159 157 150 151 155 148 144 133 129 126 124 123 127 115 100 107 120 105 111 117 93 95 115 107 91 100 105 93 82 72 70 79 79 78 70 78 68 31 30 19 15 18
162 156 155 150 154 155 150 145 130 126 119 120 120 114 113 107 88 100 121 132 128 108 107 130 99 111 116 101 105 77 46 72 108 96 95 81 71 71 64 21 18 10 5
146 143 148 151 156 150 146 145 136 131 123 111 110 112 112 105 91 86 92 89 109 117 115 120 115 95 136 155 119 67 270 202 137 121 126 98 71 66 63 50 35 352 358
135 141 153 151 156 154 160 165 163 163 141 115 93 93 102 97 88 85 90 101 91 106 147 134 123 116 98 111 111 107 317 213 149 150 137 121 102 89 75 60 54 21 336
147 155 153 157 160 162 165 161 148 139 129 124 119 102 92 96 94 98 101 120 121 112 101 107 126 131 127 133 141 150 243 301 284 239 160 154 182 129 116 53 54 28 5
151 155 156 167 159 164 152 126 115 107 109 131 147 139 117 105 105 103 124 137 143 140 165 179 170 161 176 202 146 143 165 217 260 240 205 189 185 174 227 193 260 276 25
152 137 138 144 135 145 137 140 149 158 168 180 164 145 138 130 120 118 138 149 155 151 161 191 196 200 169 193 207 206 208 181 184 265 274 215 203 210 236 263 267 254 224
103 112 123 123 115 115 128 142 160 154 142 128 120 133 136 136 132 136 151 152 161 167 169 177 180 193 192 195 197 195 234 260 224 193 249 255 255 237 232 235 240 246 233
80 86 104 109 100 106 131 140 147 141 128 127 125 132 136 134 139 147 141 149 169 176 195 197 201 203 213 210 208 184 178 195 214 201 228 247 261 257 243 236 231 225 224